26th May 2019 | Balmoral, NSW, Australia

Balmoral Burn (2019)

Individual Burn: Female

Pos Name Gun Time Overall Pos Category (Pos)
1 Bethany Halmy (#51) 00:01:36 13 Elite (1)
2 Jess Stafford (#53) 00:01:37 14 Elite (2)
3 Lora Storey (#52) 00:01:43 24 Elite (3)
4 Elise Abood (#57) 00:01:46 29 Elite (4)
5 Nicola Hogg (#59) 00:01:48 38 Elite (5)
6 Jessica Bird (#1240) 00:01:50 44 Open (1)
7 Izzy Thornton-Bott (#55) 00:01:50 46 Elite (6)
8 Susie Douglas (#58) 00:01:53 51 Elite (7)
9 Georgina Beck (#56) 00:01:56 59 Elite (8)
10 Abbey Rockliff (#54) 00:01:57 63 Elite (9)
11 Rebecca Wright (#1803) 00:01:58 67 Open (2)
12 Sophie Schultz (#1693) 00:01:59 69 Year 3-6 (1)
13 Paige Merriman (#1573) 00:02:01 75 Open (3)
14 Charlie Arnott (#1813) 00:02:03 85 Open (4)
15 Nadine Vecchio (#1757) 00:02:05 90 40-49 (1)
16 Rebecca Solomon (#1713) 00:02:06 96 Year 3-6 (2)
17 Joanna Cubis (#1902) 00:02:07 98 P&O (1)
18 Rebecca Gibbs (#1371) 00:02:08 104 30-39 (1)
19 Giselle Ashbolt (#1222) 00:02:10 110 Year 3-6 (3)
20 Eden Sigal (#1705) 00:02:10 112 Open (5)
21 Holly Ratajec (#2086) 00:02:12 119 Open (6)
22 Zoe Woods (#1801) 00:02:15 128 Year 3-6 (4)
23 Ingrid Kingsmill (#1838) 00:02:17 134 Open (7)
24 Lizzy Miller (#1578) 00:02:17 137 P&O (2)
25 Allie Joyce (#1479) 00:02:18 142 Open (8)
26 Amber Kusano (#1508) 00:02:19 146 Year 3-6 (5)
27 Piper Simpson (#1706) 00:02:20 151 Year 3-6 (6)
28 Amanda Wilson (#1789) 00:02:21 156 30-39 (2)
29 Abby Lander (#1515) 00:02:22 159 Open (9)
30 Jessica Raimond (#2061) 00:02:22 161 5059 (1)
31 Louisa Grundy (#1401) 00:02:22 165 Open (10)
32 Kate Steggles (#1721) 00:02:23 167 Open (11)
33 Imogen Howard (#1447) 00:02:23 170 Year 3-6 (7)
34 Marianne Power (#1853) 00:02:23 172 40-49 (2)
35 Monique Pellaers (#1637) 00:02:24 177 HR (1)
36 Abby Latimer (#1522) 00:02:24 178 Open (12)
37 Zoe Jamespon (#1463) 00:02:27 188 P&O (3)
38 Laura Jones (#2073) 00:02:27 195 Year 3-6 (8)
39 Courtney Cain (#1266) 00:02:28 198 Open (13)
40 Megan Guthrie (#1903) 00:02:28 200 40-49 (3)
41 Kate Molloy (#1580) 00:02:30 209 Open (14)
42 Sally Little (#1530) 00:02:30 212 Open (15)
43 Kate Sammon (#2046) 00:02:32 218 Open (16)
44 Chelsea Harkins (#1826) 00:02:33 224 Open (17)
45 Michaela Dalrymple (#1305) 00:02:33 228 Open (18)
46 Maisie Wetzel (#1885) 00:02:34 230 Year 3-6 (9)
47 Kate Dodero (#1319) 00:02:34 232 30-39 (3)
48 Nicole Carswell (#1275) 00:02:34 236 Open (19)
49 Lyndal Carmody (#1273) 00:02:34 237 30-39 (4)
50 Emma Watson (#1778) 00:02:35 238 Open (20)